Погода в Ангра-ду-Эроишму

Португалия     38°39′20″N   27°13′15″W
темп.,
°C
ветер,
м/с
пор.,
м/с
влажн.,
%
обл.,
%
осадки,
мм/ч
давл.,
гПа
погр.,
м
20 июня, вс
вс2000:00+18сз51096100 0.2 1028486
03:00+17ссз489635 0.2 1027476
06:00+16ссз47901 0.2 1027373
09:00+17ссз47770 0.0 1028645
12:00+19с57683 0.0 1028750
15:00+19с56642 0.0 1028732
18:00+18с45685 0.0 1028651
21:00+16ссв35815 0.0 1028424
21 июня, пн
пн2100:00+15ссв34867 0.0 1029311
03:00+14ссв33879 0.0 1028281
06:00+14св338769 0.0 1028272
09:00+16св347596 0.0 1029640
12:00+18св336998 0.0 1029743
15:00+19св336728 0.0 1029810
18:00+18св2266100 0.0 1029717
21:00+16всв3378100 0.0 1030333
22 июня, вт
вт2200:00+15в3380100 0.0 1030245
03:00+15в2283100 0.0 1029193
06:00+14в2284100 0.0 1030210
09:00+17в237498 0.0 1030510
12:00+20в226262 0.0 1030730
15:00+20в126384 0.0 1030812
18:00+18всв1171100 0.0 1031612
21:00+17вюв2277100 0.0 1031275
23 июня, ср
ср2300:00+16юв228397 0.0 1031118
03:00+15юв118676 0.0 103087
06:00+14зюз018799 0.0 103066
09:00+17юз007416 0.0 1030392
12:00+20сз116724 0.0 1030755
15:00+20ссз117065 0.0 1029675
18:00+19зсз1174100 0.0 1029522
21:00+18зсз117997 0.0 1029283
24 июня, чт
чт2400:00+16юз118820 0.0 102971
03:00+15ююз229017 0.0 102796
06:00+15ююз2392100 0.0 1026127
09:00+18ююз3382100 0.0 1026414
12:00+19юз2375100 0.3 1026585
15:00+19юз3382100 1.1 1024546
18:00+18ююз2489100 1.7 1024404
21:00+17ююз3593100 1.0 1024353